This is the latest recevied weather packets stored in our database for station/object HP1PCR-13. If no packets are shown the sender has not sent any weather packets the latest 10 day(s).
| Time | Temp. | Humidity | Pressure | Rain* | Wind** | Luminosity | Snow |
|---|---|---|---|---|---|---|---|
| 1777777960 | 30.56° C | 31% | 1005.5 hPa | - | - | - | - |
| 1777777356 | 30.56° C | 29% | 1005.5 hPa | - | - | - | - |
| 1777776752 | 31.11° C | 30% | 1005.3 hPa | - | - | - | - |
| 1777776148 | 31.11° C | 30% | 1005.3 hPa | - | - | - | - |
| 1777775544 | 31.67° C | 31% | 1005.2 hPa | - | - | - | - |
| 1777774940 | 31.67° C | 32% | 1005.1 hPa | - | - | - | - |
| 1777773128 | 31.67° C | 33% | 1005 hPa | - | - | - | - |
| 1777772524 | 32.22° C | 33% | 1005 hPa | - | - | - | - |
| 1777771920 | 32.22° C | 33% | 1005.1 hPa | - | - | - | - |
| 1777771315 | 32.22° C | 33% | 1005.1 hPa | - | - | - | - |
| 1777770711 | 32.22° C | 32% | 1005 hPa | - | - | - | - |
| 1777770107 | 32.78° C | 32% | 1004.8 hPa | - | - | - | - |
| 1777769502 | 32.22° C | 32% | 1004.5 hPa | - | - | - | - |
| 1777768899 | 32.22° C | 32% | 1004.5 hPa | - | - | - | - |
| 1777767691 | 32.22° C | 32% | 1004.5 hPa | - | - | - | - |
| 1777767086 | 32.22° C | 33% | 1004.7 hPa | - | - | - | - |
| 1777766482 | 32.78° C | 34% | 1004.8 hPa | - | - | - | - |
| 1777765878 | 32.78° C | 34% | 1004.9 hPa | - | - | - | - |
| 1777765274 | 32.78° C | 36% | 1004.9 hPa | - | - | - | - |
| 1777764670 | 32.78° C | 37% | 1004.9 hPa | - | - | - | - |
| 1777764066 | 32.78° C | 39% | 1004.9 hPa | - | - | - | - |
| 1777760441 | 33.33° C | 46% | 1004.7 hPa | - | - | - | - |
| 1777759837 | 33.33° C | 47% | 1004.7 hPa | - | - | - | - |
| 1777759233 | 33.33° C | 47% | 1004.7 hPa | - | - | - | - |
| 1777758628 | 33.33° C | 47% | 1004.8 hPa | - | - | - | - |
* Rain since midnight (hover to see other rain measurements)
** Current wind speed in m/s (hover to see current wind gust speed)